QPF
0.00 0.00 0.00 0.00 0.00 0.00 0.00 0.01 0.01 0.02 0.02 0.03 0.05 0.06 0.06 0.04 0.03 0.02 0.02 0.02 0.02 0.03 0.04 0.04 0.06 0.04 0.05 0.05 0.04 0.05 0.07 0.05 0.05 0.08 0.08 0.07 0.07 0.06 0.04 0.03 0.03 0.02 0.03
0.00 0.00 0.00 0.00 0.01 0.00 0.00 0.01 0.01 0.01 0.01 0.03 0.05 0.06 0.07 0.04 0.03 0.02 0.03 0.02 0.01 0.01 0.03 0.04 0.05 0.04 0.06 0.05 0.04 0.07 0.08 0.07 0.05 0.10 0.13 0.14 0.14 0.10 0.05 0.03 0.03 0.03 0.02
0.00 0.00 0.00 0.00 0.00 0.00 0.00 0.01 0.01 0.02 0.03 0.03 0.03 0.05 0.07 0.05 0.05 0.04 0.04 0.02 0.01 0.01 0.02 0.04 0.04 0.05 0.04 0.07 0.07 0.05 0.06 0.06 0.06 0.07 0.12 0.16 0.17 0.13 0.09 0.05 0.03 0.03 0.04
0.00 0.00 0.00 0.00 0.00 0.00 0.00 0.00 0.01 0.02 0.02 0.02 0.02 0.04 0.06 0.06 0.06 0.06 0.06 0.04 0.03 0.02 0.02 0.04 0.04 0.05 0.05 0.08 0.05 0.04 0.06 0.07 0.07 0.08 0.07 0.09 0.11 0.12 0.12 0.08 0.05 0.03 0.04
0.00 0.00 0.00 0.00 0.00 0.00 0.01 0.01 0.01 0.01 0.01 0.01 0.02 0.03 0.04 0.05 0.06 0.06 0.08 0.07 0.05 0.03 0.03 0.04 0.04 0.05 0.04 0.05 0.05 0.07 0.06 0.05 0.07 0.08 0.08 0.08 0.09 0.08 0.10 0.10 0.08 0.07 0.05
0.00 0.00 0.00 0.00 0.02 0.01 0.01 0.02 0.01 0.01 0.01 0.01 0.01 0.02 0.03 0.06 0.06 0.06 0.08 0.07 0.06 0.05 0.04 0.05 0.06 0.05 0.06 0.06 0.06 0.05 0.04 0.05 0.07 0.07 0.06 0.07 0.09 0.09 0.09 0.10 0.09 0.07 0.07
0.00 0.00 0.00 0.00 0.00 0.01 0.01 0.02 0.03 0.02 0.01 0.01 0.02 0.02 0.03 0.04 0.04 0.04 0.04 0.05 0.05 0.05 0.06 0.06 0.06 0.06 0.07 0.06 0.06 0.05 0.06 0.07 0.08 0.08 0.06 0.06 0.07 0.07 0.06 0.08 0.08 0.07 0.06
0.00 0.00 0.00 0.00 0.00 0.01 0.02 0.03 0.03 0.02 0.01 0.01 0.02 0.03 0.02 0.02 0.03 0.04 0.03 0.03 0.03 0.04 0.07 0.07 0.06 0.06 0.07 0.06 0.08 0.06 0.06 0.07 0.07 0.07 0.09 0.08 0.06 0.06 0.05 0.07 0.09 0.09 0.08
0.00 0.00 0.00 0.00 0.01 0.02 0.05 0.07 0.03 0.01 0.01 0.01 0.02 0.03 0.03 0.02 0.03 0.04 0.04 0.04 0.04 0.04 0.05 0.07 0.08 0.08 0.09 0.11 0.13 0.09 0.08 0.09 0.09 0.09 0.10 0.08 0.06 0.06 0.04 0.05 0.08 0.11 0.10
0.00 0.00 0.00 0.00 0.01 0.01 0.03 0.04 0.03 0.01 0.01 0.02 0.03 0.02 0.03 0.03 0.03 0.03 0.05 0.05 0.05 0.07 0.07 0.07 0.08 0.08 0.10 0.12 0.13 0.11 0.09 0.10 0.10 0.10 0.10 0.09 0.08 0.08 0.06 0.05 0.06 0.10 0.11
0.00 0.00 0.00 0.00 0.01 0.01 0.01 0.01 0.02 0.02 0.02 0.03 0.03 0.03 0.04 0.03 0.03 0.03 0.04 0.05 0.06 0.07 0.07 0.08 0.08 0.08 0.09 0.12 0.13 0.11 0.10 0.08 0.10 0.09 0.10 0.09 0.09 0.09 0.08 0.06 0.07 0.09 0.11
0.00 0.00 0.01 0.01 0.01 0.02 0.02 0.02 0.01 0.01 0.01 0.02 0.03 0.05 0.04 0.04 0.04 0.04 0.05 0.07 0.07 0.08 0.08 0.08 0.09 0.08 0.09 0.10 0.10 0.09 0.10 0.10 0.11 0.12 0.12 0.11 0.11 0.11 0.11 0.10 0.08 0.09 0.10
0.00 0.01 0.00 0.01 0.02 0.01 0.01 0.01 0.00 0.00 0.01 0.01 0.02 0.04 0.05 0.04 0.04 0.06 0.07 0.07 0.07 0.06 0.07 0.07 0.07 0.07 0.08 0.08 0.07 0.08 0.09 0.12 0.13 0.13 0.12 0.12 0.12 0.12 0.13 0.11 0.10 0.10 0.09
0.01 0.01 0.01 0.02 0.02 0.01 0.00 0.01 0.00 0.00 0.01 0.01 0.03 0.05 0.05 0.04 0.04 0.05 0.06 0.07 0.07 0.07 0.07 0.07 0.07 0.06 0.08 0.08 0.08 0.09 0.09 0.12 0.12 0.12 0.12 0.11 0.10 0.10 0.12 0.12 0.12 0.11 0.11
0.04 0.01 0.01 0.02 0.02 0.02 0.02 0.02 0.01 0.01 0.01 0.01 0.02 0.04 0.05 0.04 0.03 0.02 0.04 0.05 0.06 0.06 0.07 0.06 0.05 0.06 0.07 0.07 0.09 0.11 0.11 0.11 0.11 0.11 0.09 0.07 0.07 0.07 0.08 0.06 0.08 0.09 0.11
0.04 0.01 0.01 0.02 0.03 0.02 0.02 0.02 0.01 0.01 0.01 0.01 0.02 0.03 0.03 0.03 0.03 0.02 0.03 0.04 0.04 0.04 0.07 0.07 0.06 0.06 0.04 0.05 0.08 0.11 0.12 0.12 0.12 0.12 0.10 0.08 0.07 0.06 0.05 0.03 0.04 0.06 0.09
0.07 0.02 0.01 0.02 0.02 0.02 0.02 0.01 0.01 0.01 0.01 0.01 0.01 0.01 0.03 0.03 0.04 0.03 0.04 0.05 0.05 0.05 0.06 0.07 0.08 0.09 0.07 0.06 0.05 0.05 0.07 0.09 0.11 0.12 0.11 0.08 0.07 0.08 0.07 0.07 0.06 0.06 0.07
0.04 0.02 0.01 0.02 0.01 0.01 0.01 0.01 0.01 0.02 0.01 0.01 0.01 0.01 0.02 0.03 0.04 0.04 0.05 0.06 0.05 0.05 0.05 0.05 0.05 0.07 0.06 0.06 0.03 0.03 0.04 0.07 0.10 0.10 0.09 0.09 0.08 0.07 0.08 0.07 0.07 0.06 0.07
0.01 0.01 0.02 0.02 0.01 0.02 0.02 0.01 0.01 0.02 0.01 0.01 0.02 0.01 0.01 0.02 0.03 0.03 0.05 0.05 0.05 0.05 0.05 0.06 0.06 0.05 0.06 0.07 0.05 0.05 0.08 0.11 0.12 0.12 0.11 0.09 0.06 0.05 0.05 0.05 0.06 0.06 0.06
0.01 0.01 0.01 0.02 0.02 0.02 0.02 0.02 0.02 0.02 0.02 0.02 0.04 0.04 0.03 0.03 0.03 0.03 0.04 0.04 0.04 0.05 0.07 0.09 0.08 0.07 0.07 0.06 0.04 0.05 0.07 0.11 0.12 0.12 0.10 0.08 0.06 0.05 0.04 0.06 0.06 0.04 0.03
0.00 0.00 0.01 0.01 0.02 0.02 0.03 0.04 0.05 0.04 0.03 0.04 0.04 0.03 0.03 0.03 0.03 0.03 0.03 0.04 0.04 0.07 0.11 0.13 0.11 0.11 0.13 0.09 0.05 0.04 0.05 0.07 0.08 0.08 0.07 0.06 0.06 0.06 0.04 0.04 0.04 0.04 0.02
0.00 0.01 0.01 0.01 0.01 0.02 0.04 0.04 0.04 0.03 0.03 0.03 0.02 0.02 0.02 0.02 0.02 0.03 0.03 0.04 0.04 0.10 0.15 0.14 0.11 0.11 0.13 0.10 0.06 0.04 0.04 0.05 0.06 0.07 0.07 0.07 0.07 0.06 0.04 0.03 0.03 0.02 0.01
0.00 0.01 0.01 0.01 0.02 0.04 0.05 0.06 0.06 0.05 0.03 0.03 0.03 0.03 0.03 0.03 0.03 0.04 0.04 0.03 0.03 0.04 0.06 0.06 0.04 0.05 0.05 0.04 0.04 0.03 0.03 0.03 0.05 0.06 0.06 0.06 0.06 0.05 0.04 0.03 0.03 0.03 0.02
0.00 0.01 0.01 0.02 0.03 0.04 0.07 0.08 0.08 0.07 0.05 0.04 0.04 0.04 0.04 0.04 0.05 0.05 0.05 0.04 0.04 0.03 0.04 0.05 0.04 0.04 0.04 0.03 0.04 0.03 0.03 0.02 0.02 0.03 0.04 0.04 0.04 0.04 0.04 0.04 0.03 0.02 0.02
0.01 0.01 0.01 0.01 0.03 0.03 0.05 0.07 0.08 0.07 0.06 0.05 0.05 0.05 0.05 0.05 0.04 0.04 0.04 0.03 0.03 0.03 0.03 0.04 0.04 0.04 0.04 0.03 0.03 0.03 0.02 0.02 0.03 0.03 0.03 0.04 0.04 0.04 0.04 0.04 0.03 0.02 0.02
0.01 0.02 0.02 0.03 0.04 0.04 0.04 0.07 0.08 0.10 0.10 0.07 0.05 0.05 0.05 0.05 0.04 0.03 0.02 0.02 0.02 0.01 0.02 0.03 0.03 0.04 0.04 0.04 0.03 0.02 0.02 0.02 0.03 0.03 0.04 0.05 0.06 0.07 0.09 0.09 0.08 0.05 0.04
MSLP
1005.72 1006.40 1007.07 1007.71 1008.27 1008.75 1009.17 1009.55 1009.90 1010.23 1010.56 1010.88 1011.16 1011.42 1011.64 1011.82 1011.98 1012.12 1012.29 1012.48 1012.72 1013.01 1013.34 1013.72 1014.13 1014.53 1014.93 1015.30 1015.64 1015.94 1016.20 1016.42 1016.60 1016.73 1016.82 1016.86 1016.86 1016.81 1016.73 1016.63 1016.54 1016.49 1016.48
1005.25 1005.88 1006.52 1007.12 1007.67 1008.16 1008.60 1009.02 1009.43 1009.86 1010.28 1010.69 1011.07 1011.38 1011.62 1011.79 1011.90 1011.98 1012.07 1012.20 1012.40 1012.67 1013.02 1013.43 1013.88 1014.33 1014.77 1015.17 1015.53 1015.84 1016.10 1016.32 1016.51 1016.66 1016.78 1016.84 1016.86 1016.82 1016.73 1016.60 1016.46 1016.32 1016.22
1004.79 1005.38 1005.99 1006.58 1007.12 1007.61 1008.08 1008.53 1009.01 1009.52 1010.03 1010.53 1010.98 1011.35 1011.62 1011.79 1011.87 1011.90 1011.93 1012.00 1012.15 1012.40 1012.73 1013.16 1013.62 1014.10 1014.55 1014.96 1015.30 1015.59 1015.84 1016.05 1016.23 1016.40 1016.53 1016.64 1016.70 1016.70 1016.64 1016.51 1016.34 1016.15 1015.97
1004.37 1004.95 1005.57 1006.16 1006.70 1007.20 1007.67 1008.16 1008.68 1009.24 1009.82 1010.39 1010.90 1011.33 1011.62 1011.80 1011.86 1011.86 1011.85 1011.88 1011.98 1012.19 1012.51 1012.92 1013.38 1013.84 1014.28 1014.67 1014.99 1015.24 1015.45 1015.63 1015.80 1015.97 1016.14 1016.28 1016.40 1016.45 1016.43 1016.33 1016.17 1015.96 1015.73
1004.04 1004.65 1005.28 1005.89 1006.44 1006.94 1007.42 1007.91 1008.45 1009.03 1009.64 1010.24 1010.80 1011.27 1011.60 1011.79 1011.86 1011.84 1011.80 1011.79 1011.86 1012.04 1012.33 1012.71 1013.14 1013.57 1013.98 1014.33 1014.60 1014.82 1014.98 1015.13 1015.28 1015.45 1015.64 1015.82 1015.98 1016.10 1016.14 1016.08 1015.95 1015.74 1015.49
1003.85 1004.49 1005.16 1005.79 1006.35 1006.85 1007.31 1007.78 1008.29 1008.85 1009.46 1010.08 1010.65 1011.14 1011.50 1011.71 1011.79 1011.78 1011.74 1011.71 1011.75 1011.89 1012.14 1012.48 1012.87 1013.27 1013.64 1013.95 1014.19 1014.36 1014.50 1014.61 1014.75 1014.91 1015.10 1015.31 1015.51 1015.68 1015.77 1015.77 1015.67 1015.49 1015.25
1003.84 1004.53 1005.23 1005.88 1006.43 1006.90 1007.33 1007.74 1008.19 1008.70 1009.26 1009.85 1010.41 1010.91 1011.28 1011.52 1011.62 1011.63 1011.59 1011.55 1011.58 1011.69 1011.89 1012.19 1012.54 1012.90 1013.24 1013.52 1013.74 1013.89 1014.01 1014.11 1014.23 1014.38 1014.57 1014.79 1015.02 1015.22 1015.35 1015.40 1015.35 1015.22 1015.01
1004.05 1004.77 1005.48 1006.12 1006.65 1007.07 1007.42 1007.76 1008.12 1008.54 1009.03 1009.56 1010.08 1010.56 1010.94 1011.19 1011.32 1011.35 1011.32 1011.28 1011.29 1011.37 1011.54 1011.79 1012.11 1012.44 1012.76 1013.03 1013.25 1013.41 1013.52 1013.62 1013.74 1013.88 1014.07 1014.28 1014.52 1014.73 1014.90 1014.99 1015.00 1014.91 1014.76
1004.48 1005.20 1005.89 1006.49 1006.96 1007.31 1007.57 1007.81 1008.06 1008.38 1008.77 1009.22 1009.68 1010.12 1010.49 1010.75 1010.89 1010.93 1010.91 1010.87 1010.86 1010.91 1011.05 1011.27 1011.55 1011.87 1012.18 1012.47 1012.70 1012.89 1013.03 1013.15 1013.27 1013.41 1013.58 1013.79 1014.01 1014.23 1014.42 1014.55 1014.61 1014.60 1014.52
1005.08 1005.76 1006.41 1006.95 1007.34 1007.60 1007.77 1007.89 1008.03 1008.24 1008.53 1008.88 1009.27 1009.66 1009.99 1010.24 1010.38 1010.43 1010.40 1010.35 1010.32 1010.34 1010.45 1010.64 1010.89 1011.20 1011.52 1011.83 1012.10 1012.33 1012.51 1012.66 1012.79 1012.94 1013.10 1013.29 1013.50 1013.72 1013.92 1014.10 1014.22 1014.29 1014.30
1005.77 1006.40 1006.97 1007.43 1007.75 1007.92 1007.99 1008.03 1008.07 1008.17 1008.36 1008.62 1008.93 1009.25 1009.53 1009.75 1009.87 1009.90 1009.86 1009.79 1009.74 1009.73 1009.79 1009.95 1010.19 1010.49 1010.83 1011.16 1011.47 1011.75 1011.97 1012.16 1012.32 1012.47 1012.63 1012.80 1013.00 1013.22 1013.44 1013.66 1013.85 1014.02 1014.14
1006.46 1007.02 1007.52 1007.90 1008.15 1008.25 1008.26 1008.22 1008.20 1008.22 1008.32 1008.49 1008.73 1008.97 1009.20 1009.37 1009.45 1009.46 1009.40 1009.30 1009.22 1009.17 1009.21 1009.34 1009.55 1009.84 1010.19 1010.54 1010.89 1011.21 1011.47 1011.69 1011.87 1012.03 1012.18 1012.35 1012.54 1012.76 1013.01 1013.28 1013.55 1013.82 1014.05
1007.03 1007.54 1007.98 1008.32 1008.52 1008.59 1008.57 1008.50 1008.43 1008.41 1008.45 1008.56 1008.72 1008.90 1009.06 1009.17 1009.22 1009.18 1009.10 1008.98 1008.87 1008.80 1008.81 1008.91 1009.11 1009.39 1009.73 1010.09 1010.46 1010.79 1011.08 1011.31 1011.50 1011.66 1011.82 1011.98 1012.18 1012.41 1012.70 1013.02 1013.38 1013.73 1014.09
1007.42 1007.90 1008.32 1008.63 1008.83 1008.92 1008.91 1008.86 1008.79 1008.76 1008.77 1008.83 1008.93 1009.04 1009.15 1009.21 1009.21 1009.15 1009.05 1008.92 1008.80 1008.72 1008.71 1008.80 1008.98 1009.24 1009.57 1009.92 1010.28 1010.61 1010.90 1011.13 1011.32 1011.48 1011.63 1011.79 1012.00 1012.26 1012.58 1012.96 1013.38 1013.83 1014.27
1007.58 1008.07 1008.51 1008.85 1009.10 1009.23 1009.29 1009.29 1009.26 1009.24 1009.24 1009.28 1009.34 1009.41 1009.46 1009.48 1009.46 1009.39 1009.29 1009.17 1009.07 1009.00 1009.00 1009.08 1009.25 1009.49 1009.79 1010.12 1010.45 1010.75 1011.02 1011.23 1011.40 1011.55 1011.70 1011.87 1012.08 1012.36 1012.72 1013.14 1013.61 1014.12 1014.62
1007.53 1008.07 1008.57 1008.98 1009.31 1009.54 1009.68 1009.76 1009.79 1009.81 1009.83 1009.86 1009.90 1009.94 1009.97 1009.98 1009.96 1009.91 1009.83 1009.75 1009.68 1009.66 1009.68 1009.78 1009.95 1010.17 1010.45 1010.73 1011.02 1011.28 1011.50 1011.68 1011.82 1011.95 1012.09 1012.26 1012.48 1012.78 1013.15 1013.60 1014.10 1014.62 1015.15
1007.35 1007.97 1008.55 1009.07 1009.50 1009.84 1010.09 1010.26 1010.37 1010.44 1010.49 1010.54 1010.58 1010.61 1010.64 1010.66 1010.66 1010.65 1010.63 1010.61 1010.62 1010.66 1010.73 1010.86 1011.04 1011.26 1011.49 1011.74 1011.97 1012.17 1012.34 1012.48 1012.59 1012.70 1012.82 1012.99 1013.21 1013.51 1013.89 1014.33 1014.82 1015.33 1015.83
1007.14 1007.85 1008.53 1009.16 1009.70 1010.15 1010.50 1010.77 1010.96 1011.09 1011.19 1011.26 1011.32 1011.37 1011.42 1011.47 1011.53 1011.58 1011.64 1011.71 1011.80 1011.92 1012.06 1012.23 1012.43 1012.64 1012.86 1013.06 1013.24 1013.39 1013.50 1013.59 1013.67 1013.75 1013.85 1014.01 1014.23 1014.52 1014.87 1015.28 1015.73 1016.19 1016.62
1007.03 1007.83 1008.59 1009.31 1009.95 1010.49 1010.93 1011.28 1011.55 1011.74 1011.89 1012.00 1012.09 1012.18 1012.28 1012.39 1012.51 1012.64 1012.79 1012.96 1013.15 1013.34 1013.55 1013.77 1013.98 1014.20 1014.39 1014.55 1014.68 1014.78 1014.85 1014.90 1014.94 1015.00 1015.09 1015.23 1015.43 1015.69 1016.01 1016.37 1016.75 1017.12 1017.46
1007.11 1007.97 1008.80 1009.58 1010.28 1010.90 1011.41 1011.82 1012.14 1012.39 1012.59 1012.75 1012.90 1013.04 1013.20 1013.38 1013.57 1013.79 1014.03 1014.28 1014.55 1014.82 1015.08 1015.33 1015.57 1015.77 1015.94 1016.07 1016.16 1016.22 1016.25 1016.26 1016.28 1016.32 1016.39 1016.51 1016.69 1016.91 1017.18 1017.48 1017.78 1018.05 1018.29
1007.45 1008.33 1009.19 1010.00 1010.73 1011.37 1011.92 1012.37 1012.74 1013.05 1013.30 1013.52 1013.73 1013.95 1014.17 1014.42 1014.69 1014.98 1015.29 1015.61 1015.94 1016.25 1016.55 1016.82 1017.05 1017.24 1017.39 1017.49 1017.55 1017.58 1017.57 1017.57 1017.56 1017.59 1017.64 1017.74 1017.89 1018.08 1018.29 1018.52 1018.73 1018.92 1019.06
1008.05 1008.92 1009.76 1010.55 1011.27 1011.91 1012.47 1012.96 1013.36 1013.72 1014.03 1014.32 1014.60 1014.89 1015.19 1015.51 1015.84 1016.19 1016.55 1016.91 1017.26 1017.59 1017.89 1018.16 1018.38 1018.55 1018.67 1018.74 1018.77 1018.77 1018.74 1018.72 1018.70 1018.71 1018.75 1018.83 1018.95 1019.09 1019.26 1019.42 1019.57 1019.68 1019.74
1008.88 1009.69 1010.47 1011.21 1011.90 1012.51 1013.07 1013.56 1014.00 1014.40 1014.78 1015.14 1015.49 1015.85 1016.22 1016.60 1016.98 1017.37 1017.75 1018.12 1018.47 1018.79 1019.08 1019.32 1019.51 1019.65 1019.74 1019.78 1019.78 1019.76 1019.72 1019.68 1019.65 1019.65 1019.68 1019.74 1019.83 1019.95 1020.07 1020.19 1020.28 1020.34 1020.36
1009.85 1010.58 1011.28 1011.94 1012.56 1013.14 1013.67 1014.16 1014.63 1015.08 1015.52 1015.95 1016.38 1016.81 1017.23 1017.66 1018.08 1018.48 1018.86 1019.22 1019.55 1019.84 1020.10 1020.30 1020.46 1020.56 1020.62 1020.64 1020.62 1020.58 1020.53 1020.47 1020.44 1020.42 1020.44 1020.48 1020.56 1020.65 1020.75 1020.84 1020.91 1020.94 1020.93
1010.88 1011.50 1012.10 1012.68 1013.23 1013.75 1014.26 1014.75 1015.24 1015.73 1016.22 1016.72 1017.21 1017.70 1018.17 1018.63 1019.07 1019.47 1019.85 1020.18 1020.48 1020.74 1020.96 1021.13 1021.25 1021.33 1021.37 1021.36 1021.33 1021.28 1021.22 1021.16 1021.11 1021.09 1021.09 1021.13 1021.19 1021.27 1021.35 1021.43 1021.49 1021.52 1021.51
1011.87 1012.39 1012.90 1013.39 1013.86 1014.34 1014.81 1015.30 1015.80 1016.32 1016.85 1017.39 1017.93 1018.46 1018.97 1019.45 1019.89 1020.30 1020.66 1020.98 1021.26 1021.49 1021.68 1021.83 1021.93 1022.00 1022.03 1022.02 1021.97 1021.92 1021.85 1021.78 1021.73 1021.71 1021.71 1021.74 1021.80 1021.88 1021.97 1022.05 1022.11 1022.15 1022.15
Thickness
5840 5838 5833 5829 5822 5816 5810 5805 5800 5796 5792 5787 5782 5777 5775 5775 5774 5772 5769 5766 5765 5764 5762 5761 5759 5759 5757 5756 5756 5754 5752 5751 5752 5749 5746 5749 5752 5752 5752 5750 5749 5748 5747
5838 5835 5832 5828 5822 5816 5811 5806 5801 5798 5794 5790 5786 5782 5779 5777 5775 5774 5771 5768 5766 5764 5763 5761 5760 5759 5757 5756 5755 5753 5751 5751 5753 5747 5741 5737 5740 5747 5752 5751 5750 5750 5749
5838 5835 5832 5828 5824 5818 5813 5809 5804 5800 5796 5792 5788 5784 5779 5776 5774 5772 5770 5768 5766 5764 5763 5762 5761 5760 5758 5755 5754 5754 5751 5748 5750 5751 5744 5735 5731 5738 5745 5749 5750 5751 5750
5845 5839 5835 5830 5827 5823 5818 5813 5807 5802 5798 5794 5789 5783 5777 5773 5774 5773 5771 5769 5767 5765 5764 5763 5762 5760 5759 5757 5755 5755 5754 5751 5747 5750 5751 5748 5744 5736 5733 5742 5748 5749 5748
5849 5843 5839 5835 5832 5828 5822 5816 5809 5803 5799 5795 5791 5785 5781 5779 5778 5776 5773 5769 5768 5766 5765 5764 5762 5760 5759 5758 5757 5756 5755 5753 5750 5749 5749 5748 5746 5744 5736 5732 5739 5744 5747
5850 5845 5842 5838 5832 5829 5825 5818 5810 5804 5800 5796 5793 5788 5783 5780 5777 5774 5771 5769 5768 5767 5766 5765 5764 5762 5760 5759 5758 5757 5755 5754 5753 5751 5750 5747 5744 5742 5740 5736 5736 5738 5744
5849 5845 5841 5835 5831 5828 5825 5819 5811 5804 5801 5797 5793 5790 5786 5782 5778 5775 5772 5769 5768 5767 5767 5768 5766 5763 5762 5760 5759 5758 5756 5755 5753 5751 5750 5750 5749 5749 5746 5741 5737 5737 5741
5848 5845 5842 5837 5833 5829 5825 5820 5812 5806 5802 5798 5794 5792 5788 5784 5781 5778 5775 5772 5770 5770 5770 5769 5767 5765 5763 5762 5760 5759 5757 5756 5754 5753 5751 5750 5750 5750 5748 5744 5739 5733 5734
5846 5843 5842 5839 5835 5831 5826 5821 5814 5808 5804 5800 5796 5792 5789 5785 5783 5781 5777 5775 5773 5772 5772 5770 5768 5766 5764 5762 5760 5757 5756 5755 5754 5753 5752 5750 5750 5750 5749 5748 5744 5735 5728
5842 5841 5840 5839 5836 5833 5829 5824 5817 5810 5806 5803 5799 5795 5791 5788 5784 5781 5778 5776 5775 5773 5772 5769 5768 5766 5764 5762 5759 5757 5757 5754 5753 5752 5750 5749 5749 5748 5748 5747 5745 5742 5735
5837 5837 5836 5836 5835 5832 5828 5823 5818 5812 5807 5804 5800 5797 5793 5789 5785 5781 5780 5778 5776 5774 5771 5769 5767 5765 5763 5761 5759 5757 5756 5754 5752 5751 5749 5748 5747 5746 5746 5746 5744 5741 5737
5834 5833 5831 5829 5828 5827 5825 5821 5818 5813 5809 5805 5801 5796 5793 5790 5785 5782 5780 5779 5776 5774 5771 5769 5766 5764 5762 5760 5758 5755 5755 5753 5751 5749 5748 5747 5747 5745 5744 5743 5741 5739 5738
5827 5825 5823 5822 5821 5821 5820 5819 5816 5813 5810 5805 5800 5795 5792 5789 5786 5783 5781 5779 5776 5773 5771 5768 5765 5763 5761 5759 5757 5755 5754 5752 5750 5748 5746 5745 5744 5742 5741 5740 5739 5738 5737
5818 5815 5814 5814 5815 5816 5815 5814 5812 5811 5807 5803 5798 5793 5790 5788 5785 5782 5780 5778 5775 5772 5769 5767 5764 5762 5760 5758 5756 5754 5752 5750 5748 5747 5745 5743 5741 5739 5738 5737 5735 5734 5732
5807 5808 5808 5808 5809 5809 5808 5808 5807 5806 5804 5799 5795 5791 5789 5786 5783 5780 5777 5775 5773 5771 5768 5765 5762 5760 5758 5756 5754 5752 5750 5747 5745 5743 5741 5740 5738 5736 5734 5733 5731 5730 5727
5800 5802 5802 5802 5802 5803 5802 5802 5801 5801 5800 5796 5793 5790 5787 5783 5779 5777 5775 5772 5770 5768 5765 5762 5759 5756 5755 5753 5750 5748 5746 5744 5741 5738 5736 5736 5733 5730 5728 5727 5725 5724 5721
5793 5794 5795 5796 5797 5798 5798 5796 5797 5797 5794 5792 5790 5787 5784 5779 5776 5774 5771 5769 5766 5764 5761 5758 5755 5752 5749 5748 5746 5743 5741 5739 5736 5734 5731 5730 5728 5725 5722 5720 5718 5716 5715
5788 5788 5790 5791 5793 5794 5794 5794 5793 5791 5789 5786 5784 5783 5779 5775 5772 5770 5767 5765 5762 5759 5756 5754 5751 5748 5745 5742 5740 5738 5736 5733 5730 5727 5724 5722 5719 5719 5716 5714 5711 5708 5707
5785 5785 5787 5787 5788 5788 5789 5788 5787 5785 5782 5780 5778 5777 5775 5771 5767 5764 5762 5760 5758 5754 5752 5749 5746 5742 5739 5737 5735 5733 5730 5726 5722 5719 5717 5715 5713 5711 5709 5707 5704 5701 5699
5780 5780 5781 5781 5780 5781 5783 5780 5778 5777 5775 5774 5773 5773 5770 5767 5763 5760 5757 5756 5753 5750 5747 5744 5740 5737 5733 5730 5729 5727 5724 5720 5716 5713 5710 5708 5706 5704 5702 5700 5697 5693 5691
5770 5771 5772 5771 5771 5774 5774 5771 5770 5769 5770 5770 5768 5766 5765 5762 5759 5756 5753 5750 5747 5744 5740 5737 5733 5730 5726 5723 5721 5719 5718 5715 5711 5707 5703 5700 5698 5696 5694 5692 5690 5686 5685
5760 5761 5761 5761 5763 5766 5765 5763 5762 5764 5765 5763 5761 5759 5758 5757 5754 5750 5746 5744 5741 5737 5733 5730 5726 5723 5720 5716 5713 5711 5709 5707 5704 5700 5697 5693 5691 5689 5687 5685 5682 5680 5678
5751 5752 5752 5751 5753 5756 5757 5754 5755 5758 5758 5755 5753 5751 5749 5747 5745 5742 5739 5736 5734 5732 5728 5724 5720 5715 5712 5708 5705 5703 5701 5699 5696 5693 5689 5686 5683 5681 5678 5676 5674 5672 5670
5742 5743 5743 5742 5743 5747 5748 5748 5749 5750 5749 5747 5744 5742 5739 5736 5733 5731 5729 5726 5724 5724 5721 5717 5713 5709 5704 5700 5697 5695 5692 5690 5688 5684 5681 5678 5675 5673 5669 5667 5664 5662 5659
5732 5733 5733 5733 5734 5737 5738 5741 5742 5743 5740 5738 5736 5733 5730 5726 5721 5716 5712 5712 5708 5710 5712 5709 5706 5702 5696 5690 5688 5688 5686 5684 5680 5677 5675 5671 5668 5664 5660 5657 5654 5652 5648
5722 5723 5724 5725 5726 5728 5729 5732 5734 5735 5732 5729 5727 5725 5722 5717 5713 5708 5701 5696 5697 5697 5698 5697 5695 5689 5686 5683 5681 5679 5677 5674 5671 5669 5665 5661 5658 5654 5650 5647 5643 5640 5637